[[{"header":{"parameterUnit":"m.s-1","parameterCategory":1,"la1":30.2991,"la2":30.254,"lo1":-89.0895,"lo2":-89.0444,"dy":0.0017,"dx":0.0017,"nx":28,"ny":28,"refTime":"2023-04-16T21:00:00:Z","depth":0,"parameterNumber":2,"parameterNumberName":"U-component_of_WINDS"},"data":[0,0,0,0,0,0,0,0,0,0,0,0,0,0,0,0,0,0,0,0,0,0,0,0,0,0,0,0,0,0,0,0,0,0,0,0,0,0,0,0,0,0,0,0,0,0,0,0,0,0,0,0,0,0,0,0,0,0,-0.2596,-0.2596,0,-0.262,-0.262,-0.2621,-0.2599,-0.2599,-0.2598,-0.2597,-0.2621,-0.2622,-0.2624,0,0,0,0,0,0,0,0,0,0,0,0,0,-0.2529,-0.2531,-0.2596,-0.2596,-0.2596,-0.262,-0.262,-0.2621,-0.26,-0.2599,-0.2598,-0.2597,-0.262,-0.2622,-0.2624,0,0,0,0,0,0,0,0,0,0,0,0,0,-0.2556,-0.2531,-0.2596,-0.2589,-0.2588,-0.262,-0.262,-0.2621,-0.26,-0.2599,-0.2597,-0.2596,-0.262,-0.2622,-0.2624,-0.2663,0,0,-0.2631,-0.2631,0,0,0,0,0,0,0,0,-0.2555,-0.2559,-0.2589,-0.2589,-0.2589,-0.2605,-0.2606,-0.2635,-0.26,-0.2595,-0.2597,-0.2595,-0.2617,-0.2619,-0.2626,-0.2664,-0.2665,-0.2631,-0.2632,-0.2633,-0.2634,0,0,0,0,0,0,0,-0.2553,-0.2558,-0.2605,-0.259,-0.259,-0.2584,-0.2586,-0.2611,-0.2613,-0.2596,-0.2594,-0.2598,-0.2616,-0.2624,-0.2627,-0.2666,-0.2631,-0.2633,-0.2634,-0.2635,-0.2737,-0.2738,0,0,0,0,0,0,-0.2552,-0.2556,-0.2605,-0.2606,-0.2568,-0.2586,-0.2589,-0.2601,-0.2613,-0.2613,-0.2599,-0.2596,-0.2621,-0.2624,-0.2627,-0.2674,-0.2633,-0.2635,-0.2636,-0.2735,-0.2737,-0.2739,0,0,0,0,0,0,-0.2551,-0.2557,-0.2604,-0.2581,-0.2586,-0.2589,-0.2603,-0.2603,-0.2611,-0.2615,-0.2615,-0.2607,-0.262,-0.2624,-0.2655,-0.2674,-0.2636,-0.2638,-0.2734,-0.2736,-0.2738,-0.2768,0,0,0,0,0,0,-0.2549,-0.2556,-0.2572,-0.2581,-0.2588,-0.2631,-0.2604,-0.2604,-0.2615,-0.2612,-0.2622,-0.2623,-0.262,-0.2651,-0.2657,-0.2677,-0.264,-0.2732,-0.2735,-0.2737,-0.2765,-0.277,-0.2775,0,0,0,0,0,-0.2547,-0.2579,-0.2573,-0.2579,-0.2607,-0.2632,-0.2635,-0.2631,-0.2616,-0.2631,-0.2634,-0.2623,-0.2672,-0.2655,-0.266,-0.2681,-0.2731,-0.2734,-0.2737,-0.2762,-0.2769,-0.2775,0,0,0,0,0,0,-0.2571,-0.258,-0.2573,-0.2609,-0.262,-0.2628,-0.2647,-0.2639,-0.2654,-0.2651,-0.2645,-0.2647,-0.2679,-0.2683,-0.2664,-0.272,-0.2699,-0.2703,-0.2716,-0.2722,-0.2728,-0.2726,-0.2641,0,0,0,0,0,-0.2581,-0.2601,-0.2607,-0.2639,-0.2644,-0.2645,-0.2656,-0.2652,-0.2662,-0.2667,-0.2671,-0.2682,-0.2699,-0.2711,-0.2728,-0.2765,-0.2767,-0.2783,-0.2788,-0.2792,-0.2796,-0.2815,-0.2822,-0.2749,-0.2749,-0.2749,0,0,-0.2601,-0.2608,-0.2621,-0.2644,-0.2652,-0.2672,-0.2649,-0.2672,-0.2686,-0.267,-0.2699,-0.2703,-0.2714,-0.2748,-0.2763,-0.2752,-0.2816,-0.2796,-0.28,-0.2801,-0.2819,-0.2826,-0.2832,-0.2751,-0.2751,-0.2751,0,0,-0.2648,-0.2656,-0.2682,-0.2691,-0.2703,-0.2703,-0.271,-0.2719,-0.2721,-0.275,-0.2738,-0.2755,-0.2786,-0.2794,-0.2802,-0.2852,-0.2842,-0.2858,-0.2885,-0.2904,-0.291,-0.2915,-0.2932,-0.2938,-0.2862,-0.2862,-0.2862,0,-0.2671,-0.2702,-0.2697,-0.2721,-0.2731,-0.2717,-0.2744,-0.2752,-0.2769,-0.2776,-0.2764,-0.2802,-0.2809,-0.2844,-0.2856,-0.2863,-0.287,-0.2856,-0.2909,-0.2914,-0.2919,-0.2935,-0.2942,-0.2864,-0.2863,-0.2863,-0.2863,0,-0.2729,-0.2751,-0.2771,-0.2788,-0.28,-0.2825,-0.2824,-0.2837,-0.2832,-0.2833,-0.2862,-0.287,-0.2887,-0.2895,-0.289,-0.293,-0.2923,-0.291,-0.2889,-0.2928,-0.2943,-0.2949,-0.2866,-0.2866,-0.2865,-0.2865,0,0,-0.2792,-0.2806,-0.2814,-0.2821,-0.2833,-0.285,-0.2874,-0.2891,-0.2902,-0.2914,-0.2934,-0.296,-0.2948,-0.2958,-0.2954,-0.2971,-0.3009,-0.2956,-0.2956,-0.2965,-0.3052,-0.3061,-0.3068,-0.3002,-0.3003,-0.3004,-0.3051,0,-0.2839,-0.2881,-0.2878,-0.2918,-0.2937,-0.2925,-0.2945,-0.2955,-0.2957,-0.2973,-0.2975,-0.2993,-0.2977,-0.2982,-0.2999,-0.3001,-0.3026,-0.2997,-0.302,-0.3021,-0.3017,-0.3076,-0.3086,-0.3129,-0.3057,-0.3058,-0.3058,0,-0.2899,-0.2914,-0.2956,-0.2965,-0.2973,-0.2992,-0.3007,-0.3023,-0.3033,-0.3034,-0.3044,-0.3037,-0.3061,-0.3039,-0.3071,-0.3052,-0.306,-0.3063,-0.3064,-0.3066,-0.3042,-0.3079,-0.3143,-0.3149,-0.3068,-0.3067,-0.3066,0,-0.294,-0.297,-0.2999,-0.3006,-0.3017,-0.3031,-0.3036,-0.3045,-0.3056,-0.3069,-0.3076,-0.3092,-0.31,-0.3113,-0.311,-0.3095,-0.3143,-0.3121,-0.3143,-0.3143,-0.3153,-0.3152,-0.3219,-0.316,-0.316,-0.3159,-0.3159,0,-0.2993,-0.3019,-0.3017,-0.3035,-0.3063,-0.3059,-0.3087,-0.3091,-0.3099,-0.3117,-0.3107,-0.3124,-0.3119,-0.3136,-0.3133,-0.316,-0.3164,-0.3164,-0.3163,-0.3165,-0.3165,-0.317,-0.3167,-0.3161,-0.3161,-0.316,-0.316,0,-0.3043,-0.3043,-0.3074,-0.3082,-0.3085,-0.3105,-0.3112,-0.3129,-0.313,-0.3152,-0.3157,-0.3159,-0.3177,-0.3176,-0.3197,-0.3195,-0.3228,-0.3224,-0.3225,-0.3223,-0.3245,-0.3243,-0.3317,-0.3326,-0.3262,-0.3263,-0.3263,0,-0.3076,-0.3096,-0.3106,-0.3118,-0.3124,-0.3142,-0.3153,-0.315,-0.3161,-0.3174,-0.3189,-0.3207,-0.3221,-0.3251,-0.3254,-0.327,-0.3265,-0.329,-0.3267,-0.3268,-0.3265,-0.3263,-0.3265,-0.3294,-0.3295,-0.3296,-0.3296,0,-0.3135,-0.3134,-0.315,-0.3166,-0.318,-0.3192,-0.3204,-0.3213,-0.3211,-0.3224,-0.3243,-0.3254,-0.3276,-0.3293,-0.3308,-0.3313,-0.3304,-0.3303,-0.3309,-0.3311,-0.331,-0.331,-0.3236,-0.3302,-0.3301,-0.3301,-0.33,-0.33,-0.3177,-0.3193,-0.3203,-0.3222,-0.323,-0.3241,-0.3257,-0.326,-0.3276,-0.3293,-0.329,-0.3311,-0.3321,-0.334,-0.3346,-0.3362,-0.3353,-0.3362,-0.3364,-0.3366,-0.3368,-0.3308,-0.3365,-0.3365,-0.3365,-0.3365,-0.3365,0,-0.3234,-0.324,-0.3257,-0.3273,-0.3288,-0.3279,-0.3291,-0.3303,-0.3322,-0.3332,-0.3346,-0.3367,-0.3384,-0.3388,-0.3404,-0.3416,-0.3413,-0.3421,-0.3419,-0.342,-0.3376,-0.3369,-0.3423,-0.3423,-0.3423,-0.3423,-0.3423,-0.3423,-0.3265,-0.3293,-0.3293,-0.3325,-0.333,-0.3351,-0.3359,-0.3369,-0.3376,-0.3401,-0.3415,-0.3418,-0.3425,-0.3442,-0.3457,-0.3457,-0.3463,-0.3473,-0.3472,-0.343,-0.3424,-0.3418,-0.3411,-0.3474,-0.3474,-0.3515,-0.3515,-0.3516]},{"header":{"parameterUnit":"m.s-1","parameterCategory":1,"la1":30.2991,"la2":30.254,"lo1":-89.0895,"lo2":-89.0444,"dy":0.0017,"dx":0.0017,"nx":28,"ny":28,"refTime":"2023-04-16T21:00:00:Z","depth":0,"parameterNumber":3,"parameterNumberName":"V-component_of_WINDS"},"data":[0,0,0,0,0,0,0,0,0,0,0,0,0,0,0,0,0,0,0,0,0,0,0,0,0,0,0,0,0,0,0,0,0,0,0,0,0,0,0,0,0,0,0,0,0,0,0,0,0,0,0,0,0,0,0,0,0,0,-1.3456,-1.3456,0,-1.3475,-1.3476,-1.3476,-1.3473,-1.3473,-1.3473,-1.3473,-1.3494,-1.3495,-1.3496,0,0,0,0,0,0,0,0,0,0,0,0,0,-1.3415,-1.3416,-1.3456,-1.3456,-1.3456,-1.3475,-1.3476,-1.3476,-1.3474,-1.3473,-1.3473,-1.3472,-1.3494,-1.3495,-1.3496,0,0,0,0,0,0,0,0,0,0,0,0,0,-1.3434,-1.3416,-1.3455,-1.3457,-1.3457,-1.3475,-1.3476,-1.3476,-1.3474,-1.3473,-1.3473,-1.3472,-1.3493,-1.3495,-1.3496,-1.3514,0,0,-1.35,-1.35,0,0,0,0,0,0,0,0,-1.3433,-1.3435,-1.3457,-1.3457,-1.3457,-1.3471,-1.3469,-1.3489,-1.3474,-1.3468,-1.3473,-1.3472,-1.3487,-1.3489,-1.3494,-1.3515,-1.3515,-1.35,-1.3501,-1.3501,-1.3502,0,0,0,0,0,0,0,-1.3431,-1.3434,-1.3463,-1.3457,-1.3457,-1.3457,-1.3459,-1.3473,-1.348,-1.3468,-1.3468,-1.347,-1.3487,-1.3492,-1.3494,-1.3516,-1.35,-1.3501,-1.3502,-1.3502,-1.355,-1.3551,0,0,0,0,0,0,-1.343,-1.3433,-1.3463,-1.3464,-1.3444,-1.3458,-1.346,-1.3467,-1.348,-1.3481,-1.3471,-1.347,-1.349,-1.3492,-1.3495,-1.3515,-1.3501,-1.3503,-1.3503,-1.355,-1.355,-1.3551,0,0,0,0,0,0,-1.3429,-1.3432,-1.3462,-1.3449,-1.3452,-1.3459,-1.3467,-1.3468,-1.3473,-1.3481,-1.3483,-1.3475,-1.349,-1.3493,-1.3508,-1.3516,-1.3503,-1.3504,-1.3549,-1.355,-1.3551,-1.3556,0,0,0,0,0,0,-1.3428,-1.3432,-1.3439,-1.3449,-1.3453,-1.3475,-1.3468,-1.3469,-1.3475,-1.3475,-1.3486,-1.3487,-1.349,-1.3506,-1.351,-1.3517,-1.3505,-1.3549,-1.3549,-1.355,-1.3555,-1.3557,-1.3558,0,0,0,0,0,-1.3426,-1.3441,-1.344,-1.3443,-1.3462,-1.3476,-1.3478,-1.3481,-1.3476,-1.3483,-1.3488,-1.3487,-1.3514,-1.3508,-1.3512,-1.352,-1.3548,-1.3549,-1.355,-1.3555,-1.3557,-1.3558,0,0,0,0,0,0,-1.3433,-1.3442,-1.3441,-1.3459,-1.3466,-1.3475,-1.3484,-1.3483,-1.3493,-1.3492,-1.3495,-1.3498,-1.3513,-1.3518,-1.3511,-1.3536,-1.353,-1.3532,-1.3533,-1.3535,-1.3536,-1.3535,-1.3506,0,0,0,0,0,-1.3436,-1.3446,-1.3454,-1.3469,-1.3473,-1.3478,-1.3484,-1.3485,-1.3493,-1.3497,-1.3503,-1.3511,-1.3521,-1.3528,-1.3539,-1.3556,-1.3558,-1.3563,-1.3565,-1.3566,-1.3568,-1.3575,-1.3578,-1.3554,-1.3554,-1.3554,0,0,-1.3443,-1.345,-1.3456,-1.347,-1.3476,-1.3487,-1.3481,-1.3492,-1.35,-1.3499,-1.3513,-1.3518,-1.3527,-1.3543,-1.3551,-1.3548,-1.3574,-1.3567,-1.3568,-1.3569,-1.3577,-1.3579,-1.3581,-1.3555,-1.3555,-1.3555,0,0,-1.3462,-1.3468,-1.348,-1.3486,-1.3495,-1.3498,-1.35,-1.3509,-1.3512,-1.3526,-1.3525,-1.3534,-1.3552,-1.3558,-1.3564,-1.3582,-1.3581,-1.3585,-1.3593,-1.3601,-1.3603,-1.3605,-1.361,-1.3612,-1.3587,-1.3587,-1.3587,0,-1.347,-1.3485,-1.3487,-1.3498,-1.3504,-1.3502,-1.3514,-1.352,-1.3532,-1.3535,-1.3532,-1.3553,-1.356,-1.3576,-1.358,-1.3585,-1.3588,-1.3584,-1.3603,-1.3604,-1.3606,-1.3611,-1.3613,-1.3587,-1.3587,-1.3587,-1.3587,0,-1.3494,-1.3505,-1.3514,-1.3524,-1.353,-1.3542,-1.3545,-1.3552,-1.3552,-1.3555,-1.3569,-1.3576,-1.3586,-1.359,-1.3591,-1.3607,-1.3605,-1.3602,-1.3596,-1.3608,-1.3613,-1.3615,-1.3588,-1.3588,-1.3588,-1.3588,0,0,-1.3518,-1.3528,-1.3531,-1.3535,-1.3543,-1.3551,-1.3562,-1.3572,-1.3577,-1.3585,-1.3594,-1.3608,-1.3605,-1.3611,-1.3612,-1.3619,-1.3631,-1.3615,-1.3616,-1.3617,-1.3647,-1.3649,-1.3651,-1.3631,-1.3631,-1.3631,-1.3646,0,-1.3537,-1.3556,-1.3556,-1.3574,-1.3583,-1.358,-1.3589,-1.3596,-1.3598,-1.3606,-1.3609,-1.3619,-1.3615,-1.3618,-1.3625,-1.3629,-1.3637,-1.3628,-1.3638,-1.3639,-1.3636,-1.3654,-1.3656,-1.367,-1.3648,-1.3649,-1.3649,0,-1.3561,-1.3568,-1.3586,-1.3591,-1.3595,-1.3604,-1.3612,-1.3619,-1.3626,-1.3627,-1.3633,-1.3633,-1.3643,-1.3637,-1.3651,-1.3644,-1.3648,-1.365,-1.3651,-1.3652,-1.3645,-1.3655,-1.3675,-1.3677,-1.3652,-1.3652,-1.3652,0,-1.3576,-1.359,-1.3602,-1.3605,-1.3612,-1.3618,-1.3621,-1.3627,-1.3632,-1.3639,-1.3642,-1.3651,-1.3655,-1.3661,-1.3663,-1.3658,-1.3677,-1.3671,-1.3678,-1.3677,-1.3682,-1.3681,-1.3702,-1.3685,-1.3685,-1.3685,-1.3685,0,-1.3596,-1.3607,-1.3608,-1.3615,-1.3627,-1.3627,-1.3639,-1.3641,-1.3646,-1.3654,-1.3652,-1.366,-1.3661,-1.3669,-1.367,-1.3681,-1.3683,-1.3684,-1.3684,-1.3684,-1.3684,-1.3687,-1.3686,-1.3686,-1.3686,-1.3685,-1.3685,0,-1.3614,-1.3616,-1.3628,-1.3633,-1.3635,-1.3643,-1.3647,-1.3654,-1.3655,-1.3665,-1.3667,-1.367,-1.3678,-1.368,-1.3691,-1.3692,-1.3704,-1.3704,-1.3702,-1.3701,-1.3708,-1.3707,-1.3731,-1.3734,-1.3716,-1.3716,-1.3716,0,-1.3627,-1.3635,-1.364,-1.3644,-1.3648,-1.3655,-1.366,-1.366,-1.3665,-1.3672,-1.3677,-1.3685,-1.3692,-1.3705,-1.3708,-1.3715,-1.3715,-1.3723,-1.3716,-1.3715,-1.3714,-1.3713,-1.3713,-1.3724,-1.3724,-1.3724,-1.3724,0,-1.3649,-1.3649,-1.3655,-1.3662,-1.3667,-1.3672,-1.3677,-1.3681,-1.3682,-1.3687,-1.3695,-1.37,-1.371,-1.3717,-1.3724,-1.3727,-1.3726,-1.3726,-1.3728,-1.3728,-1.3726,-1.3726,-1.3704,-1.3726,-1.3726,-1.3726,-1.3725,-1.3725,-1.3664,-1.367,-1.3674,-1.3681,-1.3685,-1.3689,-1.3695,-1.3697,-1.3703,-1.3711,-1.371,-1.3719,-1.3723,-1.3732,-1.3736,-1.3742,-1.374,-1.3743,-1.3743,-1.3744,-1.3744,-1.3725,-1.3744,-1.3743,-1.3743,-1.3743,-1.3743,0,-1.3685,-1.3687,-1.3694,-1.37,-1.3705,-1.3702,-1.3707,-1.3711,-1.3719,-1.3723,-1.3728,-1.3737,-1.3743,-1.3746,-1.3753,-1.3757,-1.3757,-1.3759,-1.3759,-1.3759,-1.3746,-1.3744,-1.3759,-1.3759,-1.3759,-1.3759,-1.3759,-1.3759,-1.3697,-1.3707,-1.3706,-1.3718,-1.372,-1.3727,-1.373,-1.3733,-1.3737,-1.3746,-1.3751,-1.3752,-1.3756,-1.3762,-1.3768,-1.3769,-1.3771,-1.3774,-1.3774,-1.3762,-1.376,-1.3759,-1.3756,-1.3774,-1.3774,-1.3786,-1.3786,-1.3786]}]]